Find STARLINK-37449

NORAD ID: 799500933 Int'l Des: 2026-130L Constellation: starlink operational

Current View

Loading 3D Globe...

About STARLINK-37449

STARLINK-37449 (NORAD 799500933) is a starlink constellation satellite launched Jun 7, 2026

About STARLINK-37449

Description loading...

Upcoming Passes

Passes for default location (London). Set your location on the main map for personalized predictions.

Altitude History

Loading altitude history...

Two-Line Element Set

1 99999C 2026130L 26163.05187500 .00475130 00000-0 721480-4 0 1632
2 99999 97.2798 182.7639 0011048 273.1598 133.0136 16.04146032 19
Epoch: Jun 12, 2026 • Age: 5 hours